Lapse_Rate
2.2 1.9 2.0 1.6 0.9 0.7 0.8 0.8 1.6 1.6 1.8 1.6 1.5 1.3 1.1 0.6 0.2 -0.0 -0.4 -0.2 -0.2 0.1
2.0 1.9 1.5 1.1 1.4 1.3 1.6 2.1 2.0 2.2 1.8 1.9 1.8 1.6 1.4 0.9 0.8 0.9 0.8 0.6 0.6 0.4
2.0 2.0 1.9 2.1 1.8 1.9 2.3 2.6 2.2 2.2 2.4 2.3 2.4 2.2 1.8 1.2 1.4 1.1 1.3 1.1 1.1 1.1
1.8 2.2 2.5 2.3 2.6 2.9 3.3 3.3 3.1 3.1 3.3 3.3 3.1 2.7 2.1 2.0 2.2 1.9 1.6 1.6 1.7 1.8
1.5 1.7 2.1 2.4 2.6 3.3 3.1 3.7 3.5 3.5 3.3 3.3 3.6 3.6 3.6 4.0 3.0 2.5 2.6 2.5 2.6 2.7
1.4 1.5 1.9 2.2 2.7 2.9 2.9 2.7 2.7 3.0 3.5 4.2 4.3 4.5 4.3 3.8 3.4 3.3 3.3 3.4 3.3 3.2
1.1 1.5 2.2 2.6 2.6 3.1 3.2 2.9 2.9 3.3 4.3 4.7 4.9 5.0 4.6 4.2 3.4 3.3 3.5 3.8 3.8 3.7
1.8 1.3 2.2 2.8 2.9 3.3 3.3 3.0 4.2 4.0 4.3 4.9 4.6 4.7 4.3 4.5 3.7 3.6 3.7 3.9 4.2 4.4
2.5 2.5 2.7 3.3 3.2 3.2 3.1 2.8 3.1 3.7 4.0 4.0 5.2 6.3 6.8 5.3 3.5 4.0 3.6 3.7 4.1 4.7
3.3 3.2 3.1 3.4 3.4 2.9 2.9 2.7 3.0 2.2 2.9 2.9 4.3 6.6 7.3 7.8 5.5 4.5 4.0 4.3 5.0 5.4
4.0 3.9 3.5 3.5 3.4 2.1 1.5 2.4 2.1 2.6 2.1 1.5 3.8 6.5 7.1 7.5 6.6 4.6 4.9 4.8 4.6 4.2
4.4 4.4 4.3 4.2 3.3 2.9 2.5 2.1 1.0 3.0 1.1 0.0 1.6 5.7 6.6 6.9 4.4 5.2 4.6 5.0 4.9 4.3
4.4 4.5 4.1 3.6 3.3 3.3 2.1 3.1 4.0 4.0 1.3 2.8 -0.1 4.4 6.0 6.7 3.5 3.1 5.3 5.0 5.0 6.3
3.9 3.7 3.9 2.9 2.7 3.2 2.8 3.9 2.1 2.6 0.9 -0.7 1.1 1.8 5.7 6.7 6.2 5.3 6.0 6.2 5.6 5.9
Wind_Speed
8 6 7 7 6 4 4 4 10 11 12 12 12 11 11 8 7 8 4 6 5 3
7 8 7 7 5 4 8 8 12 13 11 11 11 11 11 6 4 7 5 4 4 3
7 7 7 6 7 7 8 10 11 10 10 10 10 9 9 6 6 5 3 4 5 3
7 8 7 7 6 7 10 11 9 9 8 7 7 7 6 5 5 5 4 4 4 4
7 7 8 7 7 11 7 10 10 9 8 7 6 6 5 4 4 4 3 3 3 3
7 8 8 7 6 11 10 10 10 7 3 3 5 5 5 5 4 3 2 2 1 1
7 8 8 9 7 7 10 6 6 7 6 6 6 5 5 5 3 3 2 2 1 1
6 6 8 8 7 7 8 7 7 5 5 6 6 5 5 4 4 3 3 2 3 4
6 7 7 8 7 7 5 4 6 4 5 4 3 7 8 8 4 4 4 4 4 5
6 7 6 6 6 5 6 4 4 3 5 4 4 5 6 7 6 4 4 4 4 4
6 7 6 6 6 5 3 4 3 3 3 3 2 6 6 7 2 3 4 6 6 5
7 7 7 7 6 4 3 3 2 2 3 3 3 5 7 7 1 3 4 5 7 7
6 7 6 6 5 3 2 3 3 3 4 5 3 5 8 9 1 2 5 4 7 13
5 5 5 5 3 4 3 3 1 1 1 0 2 6 10 11 3 3 5 5 6 7
Wind_Direction
125 132 138 139 137 131 124 125 126 113 111 109 106 100 95 85 85 84 77 76 70 71
121 129 136 125 120 121 122 125 123 119 111 109 105 102 99 89 82 84 84 86 82 79
128 119 126 127 127 126 125 122 121 115 113 109 105 105 103 95 96 94 87 84 82 72
128 129 125 122 122 124 123 129 123 122 119 113 107 110 99 91 92 88 81 68 76 65
122 124 125 128 127 126 116 115 115 114 115 121 122 123 121 111 101 101 95 84 83 67
127 127 124 118 115 120 120 114 108 114 132 150 146 142 141 135 136 127 131 136 125 135
139 137 134 130 121 121 124 121 135 163 178 162 163 162 160 152 148 158 173 194 221 234
132 125 131 128 125 127 126 135 157 156 160 160 167 176 176 179 178 183 205 235 244 247
127 135 144 135 139 129 127 147 163 156 155 166 181 205 201 194 189 195 198 223 227 243
137 138 135 125 131 136 147 133 157 147 155 168 193 228 246 258 179 197 215 220 227 238
139 144 138 141 146 131 122 148 146 159 144 137 218 258 270 269 270 199 236 238 238 235
144 142 146 148 145 136 130 127 144 151 150 166 243 270 278 280 306 276 262 252 254 251
143 145 147 141 142 119 134 163 161 177 175 211 221 296 292 288 158 262 276 263 247 270
126 129 132 123 112 130 137 127 117 169 59 265 242 280 286 284 272 253 273 270 271 259